Torna al catalogo

DELTA 1 DEB

AttivoSSO
NORAD 10826·DEBRIS·🇺🇸 United States

Lanciato Jul 29, 1976 da Vandenberg Space Force Base

Loading…

Prossimi Passaggi (prossime 24 ore)

TLE

AggiornatoSource: Space-Track

Epoca: Sep 14, 2026, 06:41 UTC

1 10826U 76077BW  26257.27887522  .00001923  00000-0  10833-1 0  9998
2 10826 101.9398 175.7281 0141889 298.5421 214.5363 12.60603139260220

Traccia DELTA 1 DEB in tempo reale con AllMySat

Download on the App Store